Weather History for Gillette, WY

Change the Weather History Date:

Saturday, January 5, 2013

  Actual Average Record
Temperature  
Mean Temperature 25 °F 26 °F  
Max Temperature 33 °F 37 °F - ()
Min Temperature 17 °F 14 °F - ()
Degree Days  
Heating Degree Days 40 40  
Month to date heating degree days 216 200  
Since 1 July heating degree days 3056 3341  
Cooling Degree Days 0 0  
Month to date cooling degree days 0 0  
Year to date cooling degree days 0 0  
Moisture  
Dew Point 15 °F    
Average Humidity 65    
Maximum Humidity 74    
Minimum Humidity 56    
Precipitation  
Precipitation 0.00 in 0.01 in - ()
Month to date precipitation 0.04 0.05  
Year to date precipitation 0.04 0.05  
Sea Level Pressure  
Sea Level Pressure 30.28 in    
Wind  
Wind Speed 12 mph (WSW)    
Max Wind Speed 20 mph    
Max Gust Speed 23 mph    
Visibility 10 miles    
Events      
T = Trace of Precipitation, MM = Missing Value Source: NWS Daily Summary

Daily Weather History Graph

Daily Weather History Graph

Search for Another Location

Airport:

Trip Planner

Search our weather history database for the weather conditions in past years. The results will help you decide how hot, cold, wet, or windy it might be!

Date:

Astronomy

Jan. 05, 2013 Rise Set
Actual Time 7:37 AM MST 4:37 PM MST
Civil Twilight 7:05 AM MST 5:10 PM MST
Nautical Twilight 6:28 AM MST 5:47 PM MST
Astronomical Twilight 5:53 AM MST 6:22 PM MST
Moon 12:39 AM MST (1/5) 11:35 AM MST (1/5)
Length of Visible Light 10h 05m
Length of Day
8h 59m
Last Quarter, 43% of the Moon is Illuminated
Jan 5
Last Quarter
Jan 11
New
Jan 18
First Quarter
Jan 26
Full
Feb 3
Last Quarter

Hourly Weather History & Observations

Time (MST) Temp. Windchill Dew Point Humidity Pressure Visibility Wind Dir Wind Speed Gust Speed Precip Events Conditions
12:53 AM 21.9 °F 9.8 °F 12.0 °F 66% 30.16 in 10.0 mi West 12.7 mph - N/A   Clear
1:53 AM 24.1 °F 12.0 °F 12.9 °F 62% 30.17 in 10.0 mi West 13.8 mph - N/A   Clear
2:53 AM 21.9 °F 9.2 °F 12.9 °F 68% 30.19 in 10.0 mi West 13.8 mph - N/A   Scattered Clouds
3:53 AM 21.9 °F 9.8 °F 12.9 °F 68% 30.22 in 10.0 mi West 12.7 mph - N/A   Partly Cloudy
4:53 AM 19.9 °F 6.7 °F 12.0 °F 71% 30.24 in 10.0 mi West 13.8 mph - N/A   Clear
5:53 AM 19.9 °F 6.7 °F 12.0 °F 71% 30.25 in 10.0 mi West 13.8 mph - N/A   Clear
6:53 AM 19.0 °F 4.0 °F 12.0 °F 74% 30.28 in 10.0 mi West 17.3 mph - N/A   Clear
7:53 AM 19.9 °F 5.2 °F 12.0 °F 71% 30.28 in 10.0 mi West 17.3 mph - N/A   Clear
8:53 AM 21.9 °F 7.8 °F 12.9 °F 68% 30.31 in 10.0 mi West 17.3 mph - N/A   Clear
9:53 AM 27.0 °F 14.3 °F 17.1 °F 66% 30.32 in 10.0 mi WNW 17.3 mph - N/A   Clear
10:53 AM 28.9 °F 18.2 °F 19.0 °F 67% 30.32 in 10.0 mi West 13.8 mph - N/A   Clear
11:53 AM 30.9 °F 21.2 °F 19.9 °F 64% 30.30 in 10.0 mi WNW 12.7 mph - N/A   Clear
12:53 PM 33.1 °F 24.9 °F 19.9 °F 59% 30.28 in 10.0 mi WNW 10.4 mph - N/A   Clear
1:53 PM 33.1 °F 23.9 °F 21.0 °F 61% 30.25 in 10.0 mi West 12.7 mph - N/A   Clear
2:53 PM 30.9 °F 21.7 °F 19.9 °F 64% 30.29 in 10.0 mi SW 11.5 mph - N/A   Clear
3:53 PM 28.0 °F 18.6 °F 19.0 °F 69% 30.31 in 10.0 mi WSW 10.4 mph - N/A   Clear
4:53 PM 24.1 °F 13.7 °F 17.1 °F 75% 30.34 in 10.0 mi WSW 10.4 mph - N/A   Clear
5:53 PM 21.0 °F 13.4 °F 14.0 °F 74% 30.35 in 10.0 mi WSW 5.8 mph - N/A   Clear
6:53 PM 21.0 °F - 12.9 °F 71% 30.35 in 10.0 mi Calm Calm - N/A   Clear
7:53 PM 25.0 °F 15.5 °F 12.9 °F 60% 30.32 in 10.0 mi WSW 9.2 mph - N/A   Clear
8:53 PM 23.0 °F 10.6 °F 12.9 °F 65% 30.32 in 10.0 mi SW 13.8 mph - N/A   Clear
9:53 PM 23.0 °F 10.1 °F 12.0 °F 63% 30.30 in 10.0 mi SW 15.0 mph - N/A   Clear
10:53 PM 24.1 °F 13.1 °F 12.0 °F 60% 30.27 in 10.0 mi SSW 11.5 mph - N/A   Clear
11:53 PM 24.1 °F 13.7 °F 10.0 °F 55% 30.25 in 10.0 mi South 10.4 mph 18.4 mph N/A   Clear